Cook, MN

9:46 PM CST on December 12, 2017 (GMT -0600)
Cook Municipal

Weather History for KCQM - October, 2012

Change the Weather History Date:

Saturday, October 20, 2012

  Actual Average Record
Temperature  
Mean Temperature 40 °F -  
Max Temperature 53 °F 46 °F 75 °F (2017)
Min Temperature 26 °F 30 °F 19 °F (2002)
Degree Days  
Heating Degree Days 26    
Moisture  
Dew Point 34 °F    
Average Humidity 83    
Maximum Humidity 100    
Minimum Humidity 54    
Precipitation  
Precipitation 0.00 in - - ()
Sea Level Pressure  
Sea Level Pressure 29.75 in    
Wind  
Wind Speed 1 mph (South)    
Max Wind Speed 9 mph    
Max Gust Speed -    
Visibility 9 miles    
Events Fog    
Averages and records for this station are not official NWS values.
T = Trace of Precipitation, MM = Missing Value Source: NWS Daily Summary

Daily Weather History Graph

Daily Weather History Graph

Search for Another Location

Airport or City:

Trip Planner

Search our weather history database for the weather conditions in past years. The results will help you decide how hot, cold, wet, or windy it might be!

Date:

Astronomy

Oct. 20, 2012 Rise Set
Actual Time 7:37 AM CDT 6:12 PM CDT
Civil Twilight 7:06 AM CDT 6:43 PM CDT
Nautical Twilight 6:30 AM CDT 7:19 PM CDT
Astronomical Twilight 5:54 AM CDT 7:55 PM CDT
Moon 1:27 PM CDT (10/20) 10:46 PM CDT (10/20)
Length of Visible Light 11h 37m
Length of Day
10h 34m
Waxing Crescent, 34% of the Moon is Illuminated
Oct 20
Waxing Crescent
Oct 21
First Quarter
Oct 29
Full
Nov 6
Last Quarter
Nov 13
New

Hourly Weather History & Observations

Time (CDT) Temp. Windchill Dew Point Humidity Pressure Visibility Wind Dir Wind Speed Gust Speed Precip Events Conditions
12:16 AM 35.6 °F - 35.6 °F 100% 29.72 in 10.0 mi Calm Calm - N/A   Overcast
12:37 AM 35.6 °F - 35.6 °F 100% 29.73 in 10.0 mi Calm Calm - N/A   Overcast
12:56 AM 37.4 °F - 35.6 °F 93% 29.72 in 10.0 mi Calm Calm - N/A   Overcast
1:17 AM 37.4 °F - 35.6 °F 93% 29.72 in 10.0 mi Calm Calm - N/A   Overcast
1:36 AM 37.4 °F - 35.6 °F 93% 29.73 in 10.0 mi Calm Calm - N/A   Overcast
1:57 AM 37.4 °F - 35.6 °F 93% 29.73 in 10.0 mi Calm Calm - N/A   Overcast
2:17 AM 35.6 °F - 35.6 °F 100% 29.74 in 10.0 mi Calm Calm - N/A   Mostly Cloudy
2:36 AM 33.8 °F - 33.8 °F 100% 29.74 in 7.0 mi Calm Calm - N/A   Scattered Clouds
2:57 AM 33.8 °F - 32.0 °F 93% 29.74 in 7.0 mi Calm Calm - N/A   Scattered Clouds
3:16 AM 32.0 °F - 32.0 °F 100% 29.73 in 10.0 mi Calm Calm - N/A   Clear
3:36 AM 30.2 °F - 30.2 °F 100% 29.74 in 2.5 mi Calm Calm - N/A   Clear
3:57 AM 30.2 °F - 28.4 °F 93% 29.74 in 7.0 mi Calm Calm - N/A   Clear
4:16 AM 28.4 °F - 28.4 °F 100% 29.74 in 7.0 mi Calm Calm - N/A   Clear
4:37 AM 28.4 °F - 28.4 °F 100% 29.74 in 10.0 mi Calm Calm - N/A   Clear
4:56 AM 28.4 °F - 28.4 °F 100% 29.75 in 10.0 mi Calm Calm - N/A   Clear
5:17 AM 28.4 °F - 28.4 °F 100% 29.74 in 10.0 mi Calm Calm - N/A   Clear
5:36 AM 28.4 °F - 28.4 °F 100% 29.74 in 10.0 mi Calm Calm - N/A   Clear
5:56 AM 28.4 °F - 28.4 °F 100% 29.75 in 10.0 mi Calm Calm - N/A   Clear
6:17 AM 28.4 °F - 28.4 °F 100% 29.75 in 10.0 mi Calm Calm - N/A   Clear
6:36 AM 28.4 °F - 26.6 °F 93% 29.76 in 10.0 mi Calm Calm - N/A   Scattered Clouds
6:57 AM 26.6 °F - 26.6 °F 100% 29.76 in 0.5 mi Calm Calm - N/A Fog Light Freezing Fog
7:17 AM 26.6 °F - 26.6 °F 100% 29.76 in 2.5 mi Calm Calm - N/A   Overcast
7:37 AM 28.4 °F - 26.6 °F 93% 29.76 in 0.5 mi Calm Calm - N/A Fog Light Freezing Fog
7:57 AM 26.6 °F - 26.6 °F 100% 29.76 in 0.8 mi Calm Calm - N/A   Overcast
8:16 AM 26.6 °F - 26.6 °F 100% 29.76 in 10.0 mi Calm Calm - N/A   Mostly Cloudy
8:37 AM 28.4 °F - 28.4 °F 100% 29.77 in 5.0 mi Calm Calm - N/A   Mostly Cloudy
8:57 AM 32.0 °F - 32.0 °F 100% 29.76 in 4.0 mi Calm Calm - N/A   Mostly Cloudy
9:16 AM 35.6 °F - 33.8 °F 93% 29.76 in 10.0 mi Calm Calm - N/A   Scattered Clouds
9:37 AM 37.4 °F - 37.4 °F 100% 29.76 in 10.0 mi Calm Calm - N/A   Clear
9:57 AM 41.0 °F - 39.2 °F 93% 29.76 in 10.0 mi Calm Calm - N/A   Clear
10:16 AM 42.8 °F - 39.2 °F 87% 29.76 in 10.0 mi Calm Calm - N/A   Clear
10:37 AM 44.6 °F - 39.2 °F 81% 29.76 in 10.0 mi Calm Calm - N/A   Clear
10:57 AM 46.4 °F 44.3 °F 39.2 °F 76% 29.76 in 10.0 mi SSE 4.6 mph - N/A   Clear
11:16 AM 48.2 °F - 39.2 °F 71% 29.76 in 10.0 mi SSE 3.5 mph - N/A   Clear
11:37 AM 48.2 °F - 39.2 °F 71% 29.76 in 10.0 mi SE 6.9 mph - N/A   Clear
11:56 AM 50.0 °F - 39.2 °F 66% 29.75 in 10.0 mi SW 6.9 mph - N/A   Scattered Clouds
12:16 PM 50.0 °F - 37.4 °F 62% 29.76 in 10.0 mi South 6.9 mph - N/A   Scattered Clouds
12:37 PM 50.0 °F - 37.4 °F 62% 29.76 in 10.0 mi SW 4.6 mph - N/A   Scattered Clouds
12:56 PM 50.0 °F - 37.4 °F 62% 29.76 in 10.0 mi SSE 5.8 mph - N/A   Scattered Clouds
1:16 PM 51.8 °F - 37.4 °F 58% 29.75 in 10.0 mi SSW 9.2 mph - N/A   Clear
1:37 PM 51.8 °F - 37.4 °F 58% 29.74 in 10.0 mi SSW 5.8 mph - N/A   Clear
1:57 PM 51.8 °F - 37.4 °F 58% 29.73 in 10.0 mi SSW 9.2 mph - N/A   Clear
2:16 PM 51.8 °F - 37.4 °F 58% 29.73 in 10.0 mi SE 8.1 mph - N/A   Clear
2:37 PM 51.8 °F - 37.4 °F 58% 29.74 in 10.0 mi SSW 6.9 mph - N/A   Clear
2:57 PM 51.8 °F - 37.4 °F 58% 29.75 in 10.0 mi SSW 8.1 mph - N/A   Mostly Cloudy
3:16 PM 51.8 °F - 37.4 °F 58% 29.75 in 10.0 mi SSW 6.9 mph - N/A   Overcast
3:37 PM 51.8 °F - 35.6 °F 54% 29.74 in 10.0 mi South 6.9 mph - N/A   Overcast
3:57 PM 51.8 °F - 37.4 °F 58% 29.74 in 10.0 mi South 8.1 mph - N/A   Overcast
4:16 PM 51.8 °F - 37.4 °F 58% 29.73 in 10.0 mi SSE 4.6 mph - N/A   Mostly Cloudy
4:37 PM 53.6 °F - 37.4 °F 54% 29.73 in 10.0 mi SSE 4.6 mph - N/A   Clear
4:56 PM 51.8 °F - 37.4 °F 58% 29.74 in 10.0 mi South 5.8 mph - N/A   Clear
5:17 PM 51.8 °F - 37.4 °F 58% 29.73 in 10.0 mi South 4.6 mph - N/A   Scattered Clouds
5:36 PM 50.0 °F - 37.4 °F 62% 29.73 in 10.0 mi South 3.5 mph - N/A   Clear
5:56 PM 48.2 °F - 37.4 °F 66% 29.73 in 10.0 mi Calm Calm - N/A   Clear
6:16 PM 46.4 °F - 37.4 °F 71% 29.74 in 10.0 mi Calm Calm - N/A   Scattered Clouds
6:36 PM 46.4 °F - 37.4 °F 71% 29.74 in 10.0 mi Calm Calm - N/A   Mostly Cloudy
6:57 PM 42.8 °F - 37.4 °F 81% 29.73 in 10.0 mi Calm Calm - N/A   Mostly Cloudy
7:16 PM 44.6 °F 43.1 °F 37.4 °F 76% 29.73 in 10.0 mi SE 3.5 mph - N/A   Mostly Cloudy
7:37 PM 42.8 °F - 35.6 °F 76% 29.74 in 10.0 mi Calm Calm - N/A   Scattered Clouds
7:57 PM 42.8 °F - 35.6 °F 76% 29.75 in 10.0 mi Calm Calm - N/A   Mostly Cloudy
8:16 PM 41.0 °F 39.0 °F 35.6 °F 81% 29.74 in 10.0 mi SE 3.5 mph - N/A   Scattered Clouds
8:37 PM 42.8 °F - 35.6 °F 76% 29.74 in 10.0 mi Calm Calm - N/A   Clear
8:57 PM 37.4 °F - 35.6 °F 93% 29.75 in 10.0 mi Calm Calm - N/A   Clear
9:16 PM 39.2 °F - 35.6 °F 87% 29.76 in 10.0 mi Calm Calm - N/A   Clear
9:37 PM 35.6 °F - 33.8 °F 93% 29.76 in 10.0 mi Calm Calm - N/A   Clear
9:57 PM 35.6 °F - 33.8 °F 93% 29.76 in 10.0 mi Calm Calm - N/A   Clear
10:16 PM 35.6 °F - 33.8 °F 93% 29.76 in 10.0 mi Calm Calm - N/A   Clear
10:37 PM 33.8 °F - 32.0 °F 93% 29.76 in 10.0 mi Calm Calm - N/A   Clear
10:56 PM 33.8 °F - 30.2 °F 87% 29.76 in 10.0 mi Calm Calm - N/A   Clear
11:17 PM 32.0 °F - 30.2 °F 93% 29.77 in 10.0 mi Calm Calm - N/A   Clear
11:37 PM 32.0 °F - 30.2 °F 93% 29.78 in 10.0 mi Calm Calm - N/A   Clear
11:56 PM 30.2 °F - 30.2 °F 100% 29.79 in 10.0 mi Calm Calm - N/A   Clear